| time (UTC) | temp F | wind direction | speed MPH | gust MPH | rain 1hr in | rain 24hr in | rain mn in | humidity % | barometer mb |
| 20260510013002 | 67 | 107 | 0.0 | 0.0 | 0.00 | 0.01 | 0.01 | 93 | 1012.9 |
| 20260510011502 | 67 | 107 | 0.0 | 0.0 | 0.00 | 0.01 | 0.01 | 92 | 1012.7 |
| 20260510010002 | 67 | 107 | 0.0 | 0.0 | 0.00 | 0.01 | 0.01 | 92 | 1012.5 |
| 20260510004501 | 68 | 107 | 0.0 | 0.0 | 0.00 | 0.01 | 0.01 | 91 | 1012.3 |
| 20260510003103 | 68 | 107 | 0.0 | 0.0 | 0.00 | 0.01 | 0.01 | 91 | 1012.4 |
| 20260510001559 | 68 | 107 | 0.0 | 0.0 | 0.00 | 0.01 | 0.01 | 90 | 1012.1 |
| 20260509234558 | 70 | 107 | 0.0 | 0.0 | 0.00 | 0.01 | 0.01 | 88 | 1011.7 |
| 20260509233058 | 70 | 107 | 0.0 | 0.0 | 0.00 | 0.01 | 0.01 | 87 | 1011.5 |
| 20260509231557 | 71 | 107 | 0.0 | 0.0 | 0.00 | 0.01 | 0.01 | 86 | 1011.5 |
| 20260509230058 | 71 | 107 | 0.0 | 0.0 | 0.00 | 0.01 | 0.01 | 84 | 1011.4 |
| 20260509224557 | 72 | 107 | 0.0 | 0.0 | 0.00 | 0.01 | 0.01 | 83 | 1011.2 |
| 20260509223101 | 73 | 107 | 0.0 | 0.0 | 0.00 | 0.01 | 0.01 | 82 | 1011.2 |
| 20260509221555 | 73 | 107 | 0.0 | 2.0 | 0.00 | 0.01 | 0.01 | 81 | 1011.0 |
| 20260509220054 | 73 | 107 | 0.0 | 2.0 | 0.00 | 0.01 | 0.01 | 80 | 1011.2 |
| 20260509214615 | 74 | 107 | 0.0 | 2.0 | 0.00 | 0.01 | 0.01 | 78 | 1010.9 |
| 20260509213054 | 74 | 83 | 0.0 | 2.0 | 0.00 | 0.01 | 0.01 | 76 | 1010.9 |
| 20260509211554 | 75 | 111 | 0.0 | 1.0 | 0.00 | 0.01 | 0.01 | 76 | 1010.7 |
| 20260509210058 | 76 | 173 | 0.0 | 1.0 | 0.00 | 0.01 | 0.01 | 76 | 1010.9 |
| 20260509204550 | 75 | 173 | 0.0 | 1.0 | 0.00 | 0.01 | 0.01 | 72 | 1010.7 |
| 20260509203100 | 75 | 173 | 0.0 | 2.0 | 0.00 | 0.01 | 0.01 | 75 | 1010.9 |
| 20260509201548 | 76 | 96 | 0.0 | 2.0 | 0.00 | 0.01 | 0.01 | 75 | 1010.9 |
| 20260509200043 | 76 | 92 | 0.0 | 2.0 | 0.00 | 0.01 | 0.01 | 73 | 1010.9 |
| 20260509194538 | 76 | 138 | 0.0 | 2.0 | 0.00 | 0.01 | 0.01 | 72 | 1011.0 |
| 20260509193035 | 75 | 132 | 0.0 | 2.0 | 0.00 | 0.01 | 0.01 | 74 | 1011.1 |
| 20260509191545 | 74 | 132 | 1.0 | 3.0 | 0.00 | 0.01 | 0.01 | 74 | 1011.4 |
| 20260509190031 | 74 | 115 | 0.0 | 2.0 | 0.00 | 0.01 | 0.01 | 78 | 1011.4 |
| 20260509184535 | 72 | 84 | 1.0 | 3.0 | 0.00 | 0.01 | 0.01 | 80 | 1011.5 |
| 20260509183031 | 71 | 178 | 1.0 | 4.0 | 0.00 | 0.01 | 0.01 | 82 | 1011.8 |
| 20260509181520 | 70 | 74 | 0.0 | 3.0 | 0.00 | 0.01 | 0.01 | 83 | 1012.2 |
| 20260509180019 | 69 | 156 | 0.0 | 3.0 | 0.00 | 0.01 | 0.01 | 84 | 1012.4 |
| 20260509174521 | 69 | 171 | 0.0 | 3.0 | 0.00 | 0.01 | 0.01 | 85 | 1012.5 |
| 20260509173011 | 67 | 103 | 0.0 | 3.0 | 0.00 | 0.01 | 0.01 | 88 | 1012.7 |
| 20260509171509 | 67 | 165 | 0.0 | 4.0 | 0.00 | 0.01 | 0.01 | 89 | 1012.7 |
| 20260509170010 | 66 | 179 | 0.0 | 2.0 | 0.00 | 0.01 | 0.01 | 90 | 1012.7 |
| 20260509164505 | 66 | 269 | 0.0 | 4.0 | 0.00 | 0.01 | 0.01 | 92 | 1012.7 |
| 20260509163003 | 65 | 171 | 0.0 | 2.0 | 0.00 | 0.01 | 0.01 | 96 | 1013.1 |
| 20260509161602 | 64 | 184 | 0.0 | 2.0 | 0.00 | 0.01 | 0.01 | 97 | 1012.9 |
| 20260509160057 | 64 | 184 | 0.0 | 2.0 | 0.00 | 0.01 | 0.01 | 98 | 1013.0 |
| 20260509154554 | 63 | 184 | 0.0 | 3.0 | 0.00 | 0.01 | 0.01 | 99 | 1013.0 |
| 20260509153103 | 62 | 280 | 0.0 | 2.0 | 0.00 | 0.01 | 0.01 | 99 | 1013.1 |
| 20260509151549 | 62 | 279 | 0.0 | 2.0 | 0.00 | 0.01 | 0.01 | 99 | 1013.2 |
| 20260509150046 | 62 | 316 | 0.0 | 3.0 | 0.00 | 0.01 | 0.01 | 99 | 1013.1 |
| 20260509144546 | 62 | 325 | 0.0 | 1.0 | 0.00 | 0.01 | 0.01 | 99 | 1013.0 |
| 20260509143044 | 61 | 192 | 0.0 | 3.0 | 0.00 | 0.01 | 0.01 | 99 | 1013.0 |
| 20260509141542 | 61 | 163 | 0.0 | 2.0 | 0.00 | 0.01 | 0.01 | 99 | 1013.1 |
| 20260509140041 | 61 | 220 | 0.0 | 2.0 | 0.00 | 0.01 | 0.01 | 99 | 1013.1 |
| 20260509134541 | 61 | 333 | 0.0 | 2.0 | 0.00 | 0.01 | 0.01 | 99 | 1013.3 |
| 20260509133038 | 61 | 153 | 0.0 | 3.0 | 0.00 | 0.01 | 0.01 | 99 | 1012.8 |
| 20260509131535 | 61 | 153 | 0.0 | 1.0 | 0.00 | 0.01 | 0.01 | 99 | 1012.5 |
| 20260509130040 | 61 | 153 | 0.0 | 3.0 | 0.00 | 0.01 | 0.01 | 99 | 1012.3 |
| 20260509124541 | 61 | 223 | 0.0 | 0.0 | 0.00 | 0.01 | 0.01 | 99 | 1012.0 |
| 20260509123035 | 61 | 223 | 0.0 | 3.0 | 0.00 | 0.01 | 0.01 | 99 | 1012.2 |
| 20260509121533 | 61 | 186 | 0.0 | 2.0 | 0.00 | 0.01 | 0.01 | 99 | 1012.0 |
| 20260509120030 | 60 | 188 | 0.0 | 2.0 | 0.00 | 0.01 | 0.01 | 99 | 1012.0 |
| 20260509114528 | 60 | 188 | 0.0 | 2.0 | 0.00 | 0.01 | 0.01 | 99 | 1012.0 |
| 20260509113027 | 60 | 163 | 1.0 | 3.0 | 0.00 | 0.01 | 0.01 | 99 | 1012.3 |
| 20260509111526 | 60 | 250 | 1.0 | 3.0 | 0.00 | 0.01 | 0.01 | 99 | 1011.9 |
| 20260509110025 | 60 | 351 | 1.0 | 3.0 | 0.00 | 0.01 | 0.01 | 99 | 1011.9 |
| 20260509104525 | 60 | 198 | 0.0 | 2.0 | 0.00 | 0.01 | 0.01 | 99 | 1011.8 |
| 20260509103023 | 60 | 195 | 0.0 | 2.0 | 0.00 | 0.01 | 0.01 | 99 | 1011.4 |
| 20260509101526 | 60 | 117 | 0.0 | 1.0 | 0.00 | 0.01 | 0.01 | 99 | 1011.7 |
| 20260509100026 | 60 | 117 | 0.0 | 2.0 | 0.00 | 0.01 | 0.01 | 98 | 1011.2 |
| 20260509094521 | 60 | 117 | 0.0 | 1.0 | 0.00 | 0.01 | 0.01 | 98 | 1010.7 |
| 20260509093024 | 60 | 117 | 0.0 | 2.0 | 0.01 | 0.01 | 0.01 | 98 | 1010.6 |
| 20260509091521 | 60 | 117 | 0.0 | 1.0 | 0.01 | 0.01 | 0.01 | 98 | 1010.6 |
| 20260509090032 | 60 | 117 | 0.0 | 0.0 | 0.01 | 0.01 | 0.01 | 98 | 1010.7 |
| 20260509084517 | 59 | 118 | 0.0 | 2.0 | 0.01 | 0.01 | 0.01 | 98 | 1010.6 |
| 20260509083029 | 59 | 193 | 0.0 | 2.0 | 0.00 | 0.00 | 0.00 | 97 | 1011.9 |
| 20260509081513 | 59 | 191 | 0.0 | 2.0 | 0.00 | 0.00 | 0.00 | 97 | 1012.0 |
| 20260509080011 | 58 | 171 | 0.0 | 2.0 | 0.00 | 0.00 | 0.00 | 97 | 1012.4 |
| 20260509074511 | 58 | 287 | 0.0 | 1.0 | 0.00 | 0.00 | 0.00 | 97 | 1012.2 |
| 20260509073017 | 58 | 287 | 0.0 | 3.0 | 0.00 | 0.00 | 0.00 | 97 | 1012.0 |
| 20260509071510 | 58 | 285 | 0.0 | 1.0 | 0.00 | 0.00 | 0.00 | 97 | 1011.7 |
| 20260509070007 | 57 | 285 | 0.0 | 1.0 | 0.00 | 0.00 | 0.00 | 97 | 1011.5 |
| 20260509064506 | 57 | 285 | 0.0 | 1.0 | 0.00 | 0.00 | 0.00 | 98 | 1011.8 |
| 20260509063013 | 56 | 284 | 0.0 | 0.0 | 0.00 | 0.00 | 0.00 | 97 | 1011.7 |
| 20260509061504 | 56 | 284 | 0.0 | 0.0 | 0.00 | 0.00 | 0.00 | 97 | 1011.6 |
| 20260509060003 | 56 | 284 | 0.0 | 0.0 | 0.00 | 0.00 | 0.00 | 97 | 1011.9 |
| 20260509054613 | 56 | 284 | 0.0 | 1.0 | 0.00 | 0.00 | 0.00 | 97 | 1012.1 |
| 20260509053130 | 56 | 284 | 0.0 | 0.0 | 0.00 | 0.00 | 0.00 | 96 | 1012.2 |
| 20260509051557 | 56 | 284 | 0.0 | 0.0 | 0.00 | 0.00 | 0.00 | 96 | 1012.5 |
| 20260509050054 | 57 | 284 | 0.0 | 0.0 | 0.00 | 0.00 | 0.00 | 96 | 1012.5 |
| 20260509044631 | 57 | 284 | 0.0 | 2.0 | 0.00 | 0.00 | 0.00 | 95 | 1012.6 |
| 20260509043132 | 57 | 285 | 0.0 | 1.0 | 0.00 | 0.00 | 0.00 | 95 | 1012.5 |
| 20260509041551 | 57 | 285 | 0.0 | 1.0 | 0.00 | 0.00 | 0.00 | 95 | 1012.5 |
| 20260509040050 | 58 | 285 | 0.0 | 0.0 | 0.00 | 0.00 | 0.00 | 94 | 1012.4 |
| 20260509034551 | 58 | 285 | 0.0 | 1.0 | 0.00 | 0.00 | 0.00 | 94 | 1012.5 |
| 20260509033052 | 58 | 285 | 0.0 | 0.0 | 0.00 | 0.00 | 0.00 | 94 | 1012.8 |
| 20260509031558 | 58 | 285 | 0.0 | 0.0 | 0.00 | 0.00 | 0.00 | 93 | 1012.5 |
| 20260509030107 | 58 | 285 | 0.0 | 0.0 | 0.00 | 0.00 | 0.00 | 93 | 1012.1 |
| 20260509024549 | 58 | 285 | 0.0 | 0.0 | 0.00 | 0.00 | 0.00 | 92 | 1012.4 |
| 20260509023047 | 58 | 285 | 0.0 | 0.0 | 0.00 | 0.00 | 0.00 | 91 | 1012.7 |
| 20260509021548 | 59 | 285 | 0.0 | 0.0 | 0.00 | 0.00 | 0.00 | 91 | 1012.7 |
| 20260509020050 | 58 | 285 | 0.0 | 0.0 | 0.00 | 0.00 | 0.00 | 91 | 1012.8 |
| 20260509014547 | 59 | 285 | 0.0 | 0.0 | 0.00 | 0.00 | 0.00 | 91 | 1012.5 |